GEFSMW_con_prob3kmehi_168.txt.gz
EHI
53 55 54 53 53 52 49 47 47 48 47 45 46 49 50 46 38 31 25 19 13 10 9 9 10 9 8 6 4 2 1 1 1 1 1 0 1 3 2 3 4 4 4
56 58 58 56 54 52 48 46 48 50 49 48 46 46 46 43 37 30 23 19 14 9 8 10 10 8 7 5 4 3 2 2 2 1 0 0 1 2 1 2 2 2 2
58 61 63 59 53 50 46 46 50 54 52 49 43 39 38 37 34 29 23 18 14 11 11 11 9 9 8 6 3 3 2 2 2 1 0 0 0 0 0 1 1 1 1
58 61 63 59 51 45 42 44 50 52 49 45 41 36 31 30 29 27 24 20 15 12 12 10 8 9 9 7 3 2 2 2 1 0 0 0 0 0 0 0 1 1 1
58 61 63 59 49 41 37 39 44 45 41 39 39 37 31 28 27 25 23 20 14 11 10 9 7 7 8 6 3 2 3 2 1 0 0 0 0 0 0 0 1 1 1
58 61 64 60 50 39 34 35 40 40 35 33 36 37 33 29 25 21 18 16 12 8 8 8 6 5 4 4 3 3 3 1 1 0 1 1 1 0 0 0 0 0 0
56 60 64 61 51 39 33 34 37 36 31 28 30 31 30 26 21 16 13 11 8 6 6 7 6 4 3 3 4 3 1 0 0 0 1 2 2 1 1 0 0 0 0
53 57 61 59 49 40 35 34 33 31 28 26 25 26 24 20 16 12 11 9 6 6 7 7 6 5 3 3 4 2 0 0 0 0 1 1 2 2 1 1 0 0 0
50 54 57 55 47 41 38 34 32 30 26 24 23 22 20 17 14 10 9 9 8 7 8 7 5 4 3 4 4 1 0 0 0 0 0 0 1 1 1 1 0 0 0
45 49 51 49 45 40 37 33 31 28 24 22 21 20 18 17 16 10 8 10 9 8 8 6 4 4 3 3 3 1 0 0 0 0 0 0 1 0 0 0 0 0 0
41 44 45 44 41 38 34 30 27 24 20 19 19 18 16 16 15 10 9 11 9 7 7 5 4 3 1 1 1 1 0 0 0 0 0 0 0 0 0 0 0 0 0
43 45 45 42 39 36 33 27 23 21 19 17 17 17 16 15 13 10 10 11 10 6 5 4 3 1 0 0 0 0 0 0 0 0 0 0 0 0 0 0 0 0 0
51 53 51 46 40 36 33 27 22 20 19 17 16 15 15 13 11 11 12 13 11 7 4 3 2 1 0 0 0 0 0 0 0 0 0 0 0 0 0 0 1 1 1
56 58 58 51 43 37 35 30 23 21 21 18 15 14 13 12 10 11 13 14 12 8 4 2 1 0 0 0 0 0 0 0 0 0 0 0 0 0 0 1 2 2 2
52 57 60 55 47 41 37 33 28 26 24 21 18 16 14 12 10 11 12 13 11 9 6 4 1 0 0 0 0 0 0 1 1 1 1 1 0 0 0 1 2 2 2
43 51 59 58 51 44 39 37 35 32 28 23 20 18 15 11 9 9 9 10 9 8 8 7 3 0 0 0 0 0 1 2 2 2 2 2 1 0 0 0 1 1 1
38 47 56 59 55 48 44 41 39 36 32 26 22 19 14 10 8 8 8 10 10 9 9 8 5 2 0 0 0 0 1 2 3 3 3 3 1 1 1 0 0 1 1
42 48 54 58 56 52 49 45 40 37 32 27 23 19 14 12 12 12 13 15 15 14 12 9 7 4 2 0 0 0 1 1 1 2 2 2 2 1 1 0 1 2 2
51 51 53 55 57 58 55 47 39 33 27 25 25 22 21 22 22 23 24 24 22 20 16 13 11 8 5 2 0 0 0 0 0 1 1 1 1 1 0 0 1 2 2
52 53 55 58 63 67 63 52 40 31 25 24 28 32 36 37 34 34 35 33 27 22 18 17 15 13 9 4 1 0 0 0 0 0 0 0 0 0 0 0 0 1 1
45 49 55 62 69 73 69 58 46 39 33 31 35 41 45 44 40 40 42 38 30 23 19 19 19 17 12 5 1 0 0 0 0 1 1 1 0 0 0 0 0 0 0
40 43 52 62 68 69 66 59 53 48 44 43 43 44 44 42 41 45 45 41 33 25 20 18 18 17 13 6 1 0 0 0 0 1 2 1 0 0 0 0 0 0 0
39 42 48 56 62 62 58 54 51 49 47 48 48 46 44 43 45 47 46 42 36 27 20 17 15 15 15 10 3 0 0 0 0 1 1 1 0 0 0 0 0 0 0
40 41 44 49 54 55 52 49 48 48 46 47 50 49 47 47 50 49 44 40 35 29 24 20 14 14 14 11 5 1 0 0 0 0 0 0 0 0 0 0 0 0 0
39 39 40 42 45 47 46 45 48 50 47 47 49 49 47 48 50 47 39 32 27 24 21 17 13 11 9 6 4 2 0 0 0 0 0 1 1 0 0 0 0 0 0
36 38 37 35 38 41 40 41 47 50 48 46 47 47 46 48 48 44 33 22 17 14 11 9 8 6 4 2 1 1 0 0 0 0 1 2 2 1 0 0 0 0 0

GEFSMW_con_prob3kmehi_174.txt.gz
EHI
54 52 50 46 44 42 35 28 22 21 21 19 15 10 5 3 2 1 0 1 1 1 0 0 0 0 0 0 0 0 0 0 0 0 0 0 0 0 0 0 0 0 0
52 52 51 48 44 40 34 27 23 22 21 18 13 8 4 2 1 1 0 0 0 0 0 0 0 0 0 0 0 0 0 0 0 0 0 0 0 0 0 0 0 0 0
47 49 51 49 45 41 35 28 24 24 22 18 13 8 5 2 1 0 0 0 0 0 0 0 0 0 0 0 0 0 0 0 0 0 0 0 0 0 0 0 0 0 0
42 45 49 49 45 42 37 31 28 28 24 18 14 10 6 3 1 0 0 0 0 0 0 0 0 0 0 0 0 0 0 0 0 0 0 0 0 0 0 0 0 0 0
39 42 46 46 44 42 39 34 31 29 25 18 13 10 6 3 1 1 0 0 0 0 0 0 0 0 0 0 0 0 0 0 0 0 0 0 0 0 0 0 0 0 0
35 37 41 42 42 42 40 35 30 27 23 16 10 7 5 3 2 2 1 1 0 0 0 0 0 0 0 0 0 0 0 0 0 0 0 0 0 0 0 0 0 0 0
31 34 38 40 41 41 39 34 28 24 21 15 10 7 5 4 4 3 3 2 1 0 0 0 0 0 0 0 0 0 0 0 0 0 0 0 0 0 0 0 0 0 0
29 34 37 37 38 38 36 31 27 24 20 16 11 7 6 4 3 3 3 2 1 0 0 0 0 0 0 0 0 0 0 0 0 0 0 0 0 0 0 0 0 0 0
28 32 34 33 33 33 31 28 25 23 20 17 13 9 7 5 3 2 3 2 1 1 0 0 0 0 0 0 0 0 0 0 0 0 0 0 0 0 0 0 0 0 0
26 29 30 28 28 28 27 25 23 22 20 18 15 11 7 5 3 2 1 2 2 2 2 1 1 0 0 0 0 0 0 0 0 0 0 0 0 0 0 0 0 0 0
22 24 23 22 24 25 26 24 22 20 20 18 16 12 8 5 3 2 1 1 2 2 2 2 1 0 0 0 0 0 0 0 0 0 0 0 0 0 0 0 0 0 0
16 16 16 17 20 22 23 21 19 18 18 17 15 12 8 6 4 3 1 0 1 1 1 1 0 0 0 0 0 0 0 0 0 0 0 0 0 0 0 0 0 0 0
13 11 11 14 18 19 18 17 16 16 16 14 13 11 8 6 5 3 1 0 0 0 0 0 0 0 0 0 0 0 0 0 0 0 0 0 0 0 0 0 0 0 0
15 12 11 13 17 18 15 13 13 13 13 13 12 10 8 6 4 3 2 0 0 0 0 0 0 0 0 0 0 0 0 0 0 0 0 0 0 0 0 0 0 0 0
16 14 13 13 16 17 14 11 11 11 11 13 13 11 8 6 3 2 1 0 0 0 0 0 0 0 0 0 0 0 0 0 0 0 0 0 0 0 0 0 0 0 0
13 13 13 14 15 16 14 11 10 10 11 13 13 12 9 5 2 1 0 0 0 0 0 0 0 0 0 0 0 0 0 0 0 0 0 0 0 0 0 0 0 0 0
10 12 13 15 16 15 13 12 11 10 11 13 13 11 8 4 2 0 0 0 0 0 0 0 0 0 0 0 0 0 0 0 0 0 0 0 0 0 0 0 0 0 0
10 12 14 15 15 14 12 13 12 11 11 11 11 9 6 3 2 1 0 0 0 0 0 0 0 0 0 0 0 0 0 0 0 0 0 0 0 0 0 0 0 0 0
8 11 13 13 14 12 11 12 12 10 9 9 7 5 4 2 1 1 0 0 1 1 0 0 0 0 0 0 0 0 0 0 0 0 0 0 0 0 0 0 0 0 0
6 9 11 11 11 11 10 10 9 8 7 5 3 2 2 2 1 1 0 0 1 1 0 0 0 0 0 0 0 0 0 0 0 0 0 0 0 0 0 0 0 0 0
8 10 11 10 9 9 10 9 7 5 4 2 1 0 1 2 1 0 0 0 1 1 0 0 0 0 0 0 0 0 0 0 0 0 0 0 0 0 0 0 0 0 0
12 13 13 11 9 9 9 8 6 4 3 2 1 0 0 1 1 0 0 1 1 1 1 1 1 1 0 0 0 0 0 0 0 0 0 0 0 0 0 0 0 0 0
14 14 14 13 11 9 9 9 7 5 5 5 3 2 0 0 0 1 2 3 3 3 3 2 2 1 0 0 0 0 0 0 0 0 0 0 0 0 0 0 0 0 0
12 13 14 14 12 10 9 9 8 8 7 8 7 5 2 1 1 1 3 4 4 5 5 3 2 1 0 0 0 0 0 0 0 0 0 0 0 0 0 0 0 0 0
8 9 11 12 11 10 9 8 7 7 7 9 9 7 5 4 2 2 3 2 2 3 4 3 1 0 0 0 0 0 0 0 0 0 0 0 0 0 0 0 0 0 0
5 6 8 9 9 10 10 8 6 6 7 8 8 8 8 7 4 3 2 1 1 1 2 1 1 0 0 0 0 0 0 0 0 0 0 0 0 0 0 0 0 0 0

GEFSMW_con_prob3kmehi_180.txt.gz
EHI
19 23 29 33 28 19 12 11 11 9 5 3 2 1 0 0 0 0 0 0 0 0 0 0 0 0 0 0 0 0 0 0 0 0 0 0 0 0 0 0 0 0 0
19 23 29 33 29 22 17 14 12 9 6 3 1 0 0 0 0 0 0 0 0 0 0 0 0 0 0 0 0 0 0 0 0 0 0 0 0 0 0 0 0 0 0
18 22 29 33 31 29 24 19 14 10 7 5 3 2 1 0 0 0 0 0 0 0 0 0 0 0 0 0 0 0 0 0 0 0 0 0 0 0 0 0 0 0 0
16 20 29 33 33 33 30 22 16 13 10 7 6 5 3 1 0 0 0 0 0 0 0 0 0 0 0 0 0 0 0 0 0 0 0 0 0 0 0 0 0 0 0
16 20 26 30 32 33 30 23 17 16 13 9 7 6 4 2 1 0 0 0 0 0 0 0 0 0 0 0 0 0 0 0 0 0 0 0 0 0 0 0 0 0 0
17 20 23 26 29 31 28 22 18 17 14 10 7 5 4 3 1 1 0 0 0 0 0 0 0 0 0 0 0 0 0 0 0 0 0 0 0 0 0 0 0 0 0
15 18 21 24 28 28 25 21 19 18 15 10 7 5 4 4 3 2 1 0 0 0 0 0 0 0 0 0 0 0 0 0 0 0 0 0 0 0 0 0 0 0 0
12 14 18 22 25 25 23 20 18 17 15 11 7 5 4 5 5 4 2 1 1 0 0 0 0 0 0 0 0 0 0 0 0 0 0 0 0 0 0 0 0 0 0
9 11 14 17 20 21 20 19 17 15 14 11 7 5 5 6 6 4 3 2 1 1 0 0 0 0 0 0 0 0 0 0 0 0 0 0 0 0 0 0 0 0 0
6 7 10 12 14 17 19 18 15 12 11 9 7 6 6 6 6 5 3 2 1 1 0 0 0 0 0 0 0 0 0 0 0 0 0 0 0 0 0 0 0 0 0
2 4 6 9 12 15 18 18 15 12 9 8 7 7 6 6 5 5 4 2 1 0 0 0 0 0 0 0 0 0 0 0 0 0 0 0 0 0 0 0 0 0 0
1 1 3 7 11 14 16 18 16 14 11 9 8 6 6 6 5 4 3 3 1 1 0 0 0 0 0 0 0 0 0 0 0 0 0 0 0 0 0 0 0 0 0
1 1 2 6 9 11 13 16 16 14 12 10 7 6 6 6 6 4 3 3 2 1 0 0 0 0 0 0 0 0 0 0 0 0 0 0 0 0 0 0 0 0 0
1 2 3 6 8 9 9 12 13 12 10 9 7 6 6 6 6 5 4 3 3 1 0 0 0 0 0 0 0 0 0 0 0 0 0 0 0 0 0 0 0 0 0
1 2 3 5 8 9 9 10 10 9 8 7 6 5 5 6 5 4 3 3 2 1 0 0 0 0 0 0 0 0 0 0 0 0 0 0 0 0 0 0 0 0 0
1 2 2 4 7 9 10 10 9 7 6 5 4 4 4 4 4 4 3 3 2 1 0 0 0 0 0 0 0 0 0 0 0 0 0 0 0 0 0 0 0 0 0
0 1 1 2 4 7 10 11 8 6 4 4 3 3 3 3 4 4 4 3 2 1 0 0 0 0 0 0 0 0 0 0 0 0 0 0 0 0 0 0 0 0 0
0 0 0 1 1 4 8 9 7 4 3 3 3 3 3 4 4 4 3 3 2 1 0 0 0 0 0 0 0 0 0 0 0 0 0 0 0 0 0 0 0 0 0
0 0 0 0 0 2 5 7 6 4 3 3 3 3 4 4 4 3 2 1 1 0 0 0 0 0 0 0 0 0 0 0 0 0 0 0 0 0 0 0 0 0 0
0 1 1 0 1 1 3 5 5 4 3 3 3 3 4 4 3 1 1 0 0 0 0 0 0 0 0 0 0 0 0 0 0 0 0 0 0 0 0 0 0 0 0
1 1 1 1 2 3 4 5 4 3 3 3 3 3 2 2 1 0 0 0 0 0 0 0 0 0 0 0 0 0 0 0 0 0 0 0 0 0 0 0 0 0 0
0 1 1 2 2 2 3 4 4 3 3 3 2 1 1 0 0 0 0 0 0 0 0 0 0 0 0 0 0 0 0 0 0 0 0 0 0 0 0 0 0 0 0
0 0 0 1 1 1 1 2 3 3 3 1 1 0 0 0 0 0 0 0 0 0 0 0 0 0 0 0 0 0 0 0 0 0 0 0 0 0 0 0 0 0 0
0 0 0 0 0 0 1 1 2 3 2 1 0 0 0 0 0 0 0 0 0 0 0 0 0 0 0 0 0 0 0 0 0 0 0 0 0 0 0 0 0 0 0
0 0 0 0 1 1 1 1 1 2 1 0 0 0 0 0 0 0 0 0 0 0 0 0 0 0 0 0 0 0 0 0 0 0 0 0 0 0 0 0 0 0 0
0 0 0 1 2 2 1 1 1 1 0 0 0 0 0 0 0 0 0 0 0 0 0 0 0 0 0 0 0 0 0 0 0 0 0 0 0 0 0 0 0 0 0

GEFSMW_con_prob3kmehi_186.txt.gz
EHI
25 29 32 30 26 27 29 30 26 22 20 20 18 15 11 9 6 3 1 0 0 0 0 0 0 0 0 0 0 0 0 0 0 0 0 0 0 0 0 1 1 0 0
27 31 34 31 28 29 31 31 30 26 22 19 17 16 14 10 7 5 2 0 0 0 0 0 0 0 0 0 0 0 0 0 0 0 0 0 0 0 0 1 1 1 1
29 33 36 33 31 33 35 34 34 32 26 21 17 17 16 11 7 6 4 2 2 1 1 1 1 1 0 1 1 0 0 0 0 0 0 0 0 0 0 1 1 1 1
25 30 33 34 34 36 38 38 38 36 32 26 21 18 15 9 6 7 7 6 5 4 3 3 3 2 1 2 2 1 0 0 0 0 0 0 0 0 0 0 0 0 1
19 22 26 29 31 33 36 39 39 38 36 31 27 21 14 8 6 7 8 8 7 6 5 5 5 3 2 1 2 1 0 0 0 0 0 0 0 0 0 0 0 0 0
14 17 20 25 29 31 34 37 38 37 36 33 30 24 16 11 8 8 9 7 6 7 7 6 5 4 2 1 1 1 0 0 0 0 0 0 0 0 0 0 0 0 0
13 16 19 24 29 33 35 35 35 34 33 33 31 26 20 15 11 10 10 9 9 9 8 7 6 5 3 1 0 0 0 0 0 0 1 1 1 1 1 0 0 0 0
14 16 18 22 28 33 33 33 32 31 31 32 32 29 23 17 13 12 11 12 11 10 9 8 7 7 5 2 1 1 0 0 0 0 0 1 2 3 2 0 0 0 0
15 15 15 18 25 31 32 31 31 32 31 30 30 29 25 20 18 15 12 11 10 9 9 9 7 6 5 4 3 2 1 0 0 0 0 1 3 4 2 1 1 0 0
17 15 13 16 23 28 31 31 31 33 31 27 26 27 27 25 23 19 16 13 11 11 11 10 7 6 6 6 5 3 1 0 0 0 0 1 3 3 2 1 2 1 0
18 15 12 15 20 25 28 29 29 30 28 24 23 25 27 27 25 22 18 16 15 14 13 11 8 6 6 7 6 3 1 0 0 0 0 0 1 1 1 1 1 1 0
14 13 11 12 17 22 26 25 24 24 24 23 23 25 27 27 24 20 18 17 15 13 12 11 8 7 6 7 6 5 4 2 0 0 0 0 0 0 0 0 0 0 0
13 13 12 12 16 22 24 22 19 18 20 23 25 26 26 25 22 18 17 18 15 12 10 10 8 7 6 6 6 6 6 3 1 0 0 0 0 0 0 0 0 0 1
16 15 15 16 20 24 24 22 19 19 22 25 27 26 24 22 21 20 19 18 15 11 9 8 7 7 6 6 7 7 6 5 3 1 0 0 0 0 0 0 0 0 1
17 16 17 21 25 26 24 24 25 26 27 29 29 29 26 22 21 21 20 18 15 11 8 7 6 6 6 6 6 6 6 5 4 1 0 0 0 0 0 0 0 0 1
16 15 16 21 27 28 27 27 31 33 32 31 30 30 28 24 21 20 18 16 14 12 10 8 6 6 5 3 3 3 4 3 2 1 0 0 0 0 0 0 0 0 0
15 15 17 22 28 30 29 28 31 33 33 30 27 27 26 23 20 17 14 14 14 14 13 10 8 7 5 1 0 1 2 1 1 0 1 1 0 0 0 0 0 0 0
16 17 20 24 26 28 27 25 27 28 27 24 23 22 20 17 15 13 12 13 15 15 14 12 10 9 5 1 0 0 0 0 0 1 2 3 2 0 0 0 0 0 0
15 15 18 21 24 25 24 22 21 20 20 19 19 18 15 11 9 9 11 13 13 13 13 12 11 10 6 2 0 0 0 1 1 2 3 4 3 1 0 0 0 0 0
10 10 13 17 19 21 20 17 14 14 14 15 15 13 11 8 6 7 10 11 11 11 11 11 11 10 7 2 0 0 1 2 3 4 4 3 1 0 0 0 0 0 0
8 8 10 12 14 15 13 10 8 8 11 13 12 10 8 6 5 6 9 10 10 11 11 11 11 9 6 2 0 0 1 2 3 4 3 1 0 0 0 0 0 0 0
8 7 7 8 9 9 7 6 6 7 12 14 12 10 8 6 6 8 9 10 11 11 11 10 9 8 6 2 0 0 0 1 2 2 1 0 0 0 0 0 0 0 0
8 6 5 5 6 7 7 8 8 11 15 17 15 12 9 8 9 10 10 9 9 8 7 6 5 5 5 3 2 1 0 0 1 2 1 0 0 0 0 0 0 0 0
8 7 5 5 6 7 8 9 10 14 17 20 19 14 10 10 11 10 8 7 5 4 3 3 4 5 5 4 3 2 1 1 1 1 0 0 0 0 0 0 0 0 0
8 8 8 7 6 7 8 7 9 13 17 19 19 14 10 10 10 8 5 3 2 2 1 2 5 6 5 3 2 3 2 1 0 0 0 0 0 0 0 0 0 0 0
9 9 8 7 6 8 8 7 9 12 15 17 16 13 11 10 8 6 4 2 1 1 0 1 3 5 3 1 1 1 1 1 0 0 0 0 0 0 0 0 0 0 0

GEFSMW_con_prob3kmehi_192.txt.gz
EHI
69 72 72 70 73 78 79 79 79 77 73 66 61 58 58 54 47 44 42 32 20 12 9 14 19 15 13 13 11 9 7 5 2 1 0 2 6 7 5 2 1 2 3
72 75 76 75 76 80 82 80 79 77 72 67 63 60 58 54 49 48 46 35 24 17 13 18 20 18 17 14 10 9 8 6 3 1 0 1 2 3 3 2 3 4 5
77 80 81 80 81 82 83 81 79 76 72 68 62 58 57 52 50 53 48 37 28 22 22 25 25 22 19 15 11 10 9 7 5 3 1 1 0 0 1 2 3 5 5
77 82 84 82 81 81 80 80 80 76 70 65 59 54 51 47 48 50 45 35 26 22 25 29 29 24 20 17 13 10 9 8 7 5 3 2 1 0 1 1 2 3 4
71 78 83 81 79 78 77 78 79 75 66 59 56 52 46 43 45 46 42 32 22 17 20 26 27 24 21 19 17 15 11 8 6 5 4 3 1 0 0 0 1 2 3
62 70 78 80 78 76 74 75 77 74 64 57 54 51 46 45 46 46 41 31 20 14 15 19 24 24 22 23 25 23 15 8 6 5 4 3 2 1 0 0 0 1 2
52 61 72 79 80 78 75 74 74 71 64 57 54 52 48 48 47 43 37 28 18 15 17 20 24 25 23 26 29 26 16 8 6 4 4 5 3 1 0 0 0 0 1
46 54 67 76 79 79 76 73 71 69 64 58 56 55 52 48 45 41 36 28 19 19 25 29 28 27 24 25 27 24 16 9 6 4 5 7 5 3 2 1 1 0 0
41 49 60 68 73 74 72 69 68 67 64 60 56 54 53 50 46 42 38 32 25 24 32 36 33 28 25 24 23 20 15 11 7 6 7 8 7 6 5 3 3 1 0
37 43 51 58 63 65 66 65 65 64 62 59 54 52 54 53 48 43 40 37 33 34 39 41 37 31 27 24 22 18 15 12 9 7 7 8 8 7 5 5 4 3 1
37 39 43 47 52 57 59 61 62 60 58 55 52 51 53 52 47 42 41 42 43 43 46 45 39 32 27 24 19 15 13 12 10 8 6 6 7 6 6 5 4 3 3
42 42 42 43 46 50 56 58 58 56 54 52 50 48 48 49 47 43 42 44 46 45 45 44 39 31 25 22 18 13 11 11 11 9 7 6 7 8 7 5 4 3 3
45 46 47 47 47 50 55 56 56 54 51 49 46 43 44 48 49 44 41 41 41 39 39 39 37 30 24 21 17 13 11 11 11 11 10 8 9 9 8 6 4 2 1
41 45 51 53 52 53 54 54 52 51 50 47 44 41 43 48 49 45 40 37 35 35 36 36 35 29 23 19 16 13 12 13 13 12 11 9 9 9 8 6 4 2 0
37 43 50 54 53 53 53 51 49 50 50 48 47 44 43 46 47 43 38 34 32 31 33 33 32 27 20 15 14 13 14 14 14 13 12 9 7 6 5 4 3 1 0
36 41 48 52 51 49 50 49 49 51 52 51 49 46 43 43 43 39 35 32 30 30 30 30 27 23 15 10 10 12 14 13 13 12 11 7 4 3 2 2 1 0 0
34 39 47 52 50 47 48 49 49 48 50 49 45 43 42 40 36 33 33 34 32 32 31 29 26 20 13 7 5 8 11 12 12 12 10 6 3 2 1 1 0 0 0
35 39 45 48 47 44 44 45 43 41 41 41 39 38 38 35 31 30 33 35 34 32 31 30 28 23 14 7 3 4 8 12 13 12 11 9 5 3 1 1 0 0 0
36 37 39 41 44 44 42 39 36 33 32 32 33 34 34 32 30 30 32 34 33 29 28 28 26 23 16 8 2 3 8 12 13 13 11 9 6 2 0 1 1 1 0
31 31 32 38 45 48 43 34 30 30 28 28 28 30 32 32 33 33 33 31 29 25 23 22 22 20 15 8 2 3 8 11 12 12 10 7 3 1 0 1 2 2 1
26 27 32 40 46 48 43 35 32 31 28 25 26 30 32 32 34 37 35 28 23 21 19 19 18 17 13 7 2 2 6 9 10 11 10 6 1 0 0 1 2 2 1
27 29 35 40 40 39 38 35 34 33 29 27 28 30 31 31 33 36 34 25 19 17 16 15 14 12 10 6 2 1 2 4 7 9 8 4 1 0 0 0 1 1 0
28 29 31 32 30 29 30 31 31 30 30 31 32 31 30 30 31 30 27 20 14 12 11 10 10 9 8 6 2 0 0 1 3 5 4 1 0 0 0 0 0 0 0
24 23 24 24 23 23 23 25 26 25 26 30 31 29 26 26 25 23 19 13 10 8 7 7 8 8 7 5 2 1 0 0 0 1 1 0 0 0 0 0 0 0 0
19 19 19 20 22 22 21 23 26 25 23 25 25 23 20 19 19 17 12 8 6 5 4 5 6 6 5 3 1 1 0 0 0 0 1 1 1 0 0 0 0 1 1
18 17 17 19 21 22 21 23 27 26 23 23 22 18 16 16 16 14 9 5 3 2 2 2 3 3 2 1 0 1 0 0 0 1 2 2 2 1 0 0 1 2 2

GEFSMW_con_prob3kmehi_198.txt.gz
EHI
61 66 71 69 65 66 66 60 53 46 41 36 32 26 18 10 7 6 6 5 7 7 6 3 1 0 0 0 0 0 0 0 0 0 0 0 0 0 0 0 0 0 0
66 68 72 72 69 69 68 64 58 51 42 33 27 23 16 11 10 10 8 7 8 9 7 3 1 0 0 0 0 0 0 0 0 0 0 0 0 0 0 0 0 0 0
70 71 74 74 73 72 71 68 62 54 44 32 25 23 19 14 14 13 11 8 8 8 7 4 2 1 0 0 0 0 0 0 0 0 0 0 0 0 0 0 0 0 0
71 73 75 76 75 73 71 67 62 55 47 37 30 27 22 16 13 12 10 8 7 7 6 4 3 2 1 0 0 0 0 0 0 0 0 0 0 0 0 0 0 0 0
68 71 76 77 75 73 71 67 61 55 49 42 34 28 22 16 11 10 10 8 7 6 6 4 3 3 2 1 0 0 0 0 0 0 0 0 0 0 0 0 0 0 0
61 65 73 76 74 73 74 70 63 57 51 44 35 26 20 15 12 12 11 9 7 7 6 5 4 3 3 1 0 0 0 0 0 0 0 0 0 0 0 0 0 0 0
58 62 70 73 72 72 73 70 64 58 53 47 38 28 19 15 13 13 13 12 10 8 7 6 5 4 3 2 1 0 0 0 0 0 0 0 0 0 0 0 0 0 0
61 64 66 66 67 68 68 66 62 58 55 50 43 32 21 15 13 12 13 14 13 11 8 8 7 6 5 4 2 0 0 0 0 0 0 0 0 0 0 0 0 0 0
62 64 62 59 61 63 62 61 59 57 55 52 46 37 26 19 15 13 14 14 14 12 9 8 7 7 6 5 3 1 1 0 0 0 0 0 0 0 0 0 0 0 0
54 56 56 54 55 57 58 58 57 55 52 51 46 37 29 24 20 16 14 14 13 12 10 8 7 7 7 4 2 2 2 1 0 0 0 0 0 0 0 0 0 0 0
46 48 50 50 49 50 52 55 55 52 49 48 44 37 31 26 21 18 15 13 13 11 10 10 9 7 5 3 1 1 2 2 1 0 0 0 0 0 0 0 0 0 0
40 43 47 48 46 45 47 50 50 47 44 43 41 37 31 27 23 18 15 12 12 11 9 9 10 8 5 3 2 2 3 3 2 1 1 0 0 0 0 0 0 0 0
37 40 43 43 42 43 45 46 44 41 40 39 38 36 31 27 23 19 15 12 11 9 7 8 9 8 5 3 3 3 3 4 3 3 2 1 1 1 1 1 0 0 0
35 35 36 37 38 40 43 43 41 39 38 36 34 30 27 23 20 17 15 12 8 7 7 7 9 8 5 3 4 4 4 4 4 3 3 2 2 2 2 2 1 0 0
34 34 33 34 35 36 38 38 37 35 34 31 27 23 20 17 14 13 13 12 9 7 7 8 9 8 5 4 5 5 6 5 4 3 3 3 3 3 3 2 1 0 0
36 35 35 33 32 31 30 29 28 26 25 24 20 17 15 13 11 10 10 11 10 9 9 10 9 7 6 4 4 5 6 6 4 3 4 4 4 3 2 1 0 0 0
33 34 34 32 27 25 23 22 21 20 19 18 16 14 13 12 11 9 9 10 11 12 12 11 10 8 6 5 4 4 5 5 4 4 5 5 4 3 2 0 0 0 0
23 26 29 29 25 20 18 18 18 17 15 14 14 14 14 13 12 10 9 10 11 12 12 12 12 9 6 4 3 2 4 5 4 3 4 4 3 2 1 0 0 0 0
15 18 23 26 23 18 16 16 15 13 12 11 12 14 15 15 14 13 13 14 13 12 10 11 12 8 5 4 2 1 3 4 3 3 2 2 2 1 0 0 0 0 0
13 15 20 23 20 15 15 15 13 11 11 10 9 10 13 14 14 15 17 16 14 10 9 9 8 6 5 3 1 1 2 3 2 1 1 1 1 0 0 0 0 0 0
16 17 20 20 16 15 15 14 12 10 9 7 5 6 9 12 12 13 14 14 11 8 7 6 4 4 4 3 1 1 2 2 1 0 0 0 0 0 0 0 0 0 0
20 19 19 17 14 14 14 12 10 8 6 4 4 4 6 8 8 8 9 9 8 7 6 4 3 3 3 2 1 0 1 1 0 0 0 0 0 0 0 0 0 0 0
19 18 17 13 11 11 11 10 8 6 5 4 3 3 4 5 5 5 6 6 6 7 6 4 3 2 1 1 0 0 0 0 0 0 0 0 0 0 0 0 0 0 0
14 14 12 10 9 8 8 8 8 7 6 5 4 4 3 3 2 3 3 3 3 5 5 3 1 1 0 0 0 0 0 0 0 0 0 0 0 0 0 0 0 0 0
11 11 9 8 7 7 8 8 8 8 7 6 5 4 3 1 1 1 1 1 1 1 1 1 0 0 0 0 0 0 0 0 0 0 0 0 0 0 0 0 0 0 0
12 11 9 7 7 8 9 8 7 7 7 6 5 4 3 1 0 0 0 0 0 0 0 0 0 0 0 0 0 0 0 0 0 0 0 0 0 0 0 0 0 0 0

GEFSMW_con_prob3kmehi_204.txt.gz
EHI
18 18 21 24 23 19 18 16 14 12 11 9 6 5 3 1 1 1 2 3 3 2 1 0 0 0 0 0 0 0 0 0 0 0 0 0 0 0 0 0 0 0 0
22 24 29 34 32 27 24 22 19 16 15 12 8 5 3 2 2 2 3 3 3 3 1 1 0 0 0 0 0 0 0 0 0 0 0 0 0 0 0 0 0 0 0
31 35 42 47 45 37 33 31 27 23 19 16 11 7 5 4 4 4 3 3 3 3 3 2 1 0 0 0 0 0 0 0 0 0 0 0 0 0 0 0 0 0 0
36 42 49 54 54 47 41 39 35 29 23 19 17 14 9 6 5 5 4 3 3 3 3 4 3 2 0 0 0 0 0 0 0 0 0 0 0 0 0 0 0 0 0
33 41 49 53 54 52 47 42 38 33 27 24 23 20 15 9 6 5 5 4 3 3 3 4 5 3 1 0 0 0 0 0 0 0 0 0 0 0 0 0 0 0 0
30 37 44 48 50 51 48 45 40 34 29 26 26 24 20 14 7 5 5 5 4 3 4 5 6 4 2 1 0 0 0 0 0 0 0 0 0 0 0 0 0 0 0
29 33 39 43 46 48 50 49 43 36 30 28 28 26 22 16 10 5 4 4 3 3 4 6 6 5 3 1 0 0 0 0 0 0 0 0 0 0 0 0 0 0 0
28 30 34 38 41 44 48 50 44 37 32 31 30 28 24 18 12 7 5 4 4 4 4 5 6 5 4 2 0 0 0 0 0 0 0 0 0 0 0 0 0 0 0
28 28 28 32 36 38 41 44 42 38 35 32 30 28 25 20 15 10 7 6 6 5 5 6 6 6 5 3 1 0 0 0 0 0 0 0 0 0 0 0 0 0 0
26 25 24 26 29 30 32 35 38 39 38 33 30 27 24 21 16 12 8 7 6 6 6 6 6 6 5 3 2 1 0 0 0 0 0 0 0 0 0 0 0 0 0
20 20 20 20 22 24 26 29 32 36 38 35 29 25 21 18 15 13 10 7 7 6 6 6 6 6 5 3 2 1 0 0 0 0 0 0 0 0 0 0 0 0 0
17 16 17 17 17 19 23 25 27 31 34 31 25 20 17 15 13 12 10 7 6 6 6 6 5 5 4 3 1 0 0 0 0 0 0 0 0 0 0 0 0 0 0
16 16 16 16 16 17 20 22 24 26 28 25 20 17 16 15 13 10 8 6 5 4 5 5 4 3 3 1 0 1 1 1 1 1 1 1 1 0 0 0 0 0 0
16 16 16 16 16 17 20 21 21 22 22 21 17 15 14 14 13 10 7 5 4 4 4 3 2 2 2 1 0 1 2 2 2 2 2 2 1 1 1 1 0 0 0
15 15 16 16 16 19 21 20 18 17 18 18 17 14 12 11 10 9 6 5 6 6 5 3 2 1 1 0 0 1 1 2 3 3 3 1 1 1 1 1 1 0 0
11 12 13 13 16 20 21 19 14 12 13 15 15 13 11 9 7 6 5 5 6 6 6 5 4 3 2 1 0 0 1 2 3 3 2 1 0 0 0 0 0 0 0
8 10 11 13 16 18 18 15 11 10 11 11 11 10 9 8 7 5 4 5 6 6 5 5 5 4 3 1 0 0 1 2 3 3 2 1 0 1 1 0 0 0 0
7 9 13 16 16 15 14 11 9 9 9 8 8 7 6 5 5 3 3 5 6 5 4 4 4 4 3 1 0 0 0 1 2 3 2 1 1 1 1 0 0 0 0
7 9 14 16 15 14 13 10 7 6 6 6 6 5 3 2 2 2 2 4 5 4 4 4 4 3 2 1 0 0 0 0 1 2 2 1 1 1 1 0 0 0 0
7 8 11 14 14 13 12 9 6 4 3 4 4 3 1 1 1 2 2 2 2 3 3 3 3 3 1 0 0 0 0 0 0 1 2 1 1 0 0 0 0 0 0
5 7 9 11 12 12 10 8 5 3 3 3 3 3 2 2 3 2 1 0 1 2 1 1 1 1 0 0 0 0 0 0 0 1 2 2 0 0 0 0 0 0 0
5 8 10 10 10 9 9 7 4 1 1 3 3 3 3 3 3 3 1 1 2 2 1 1 1 0 0 0 0 0 0 0 0 1 1 1 0 0 0 0 0 0 0
7 10 12 11 9 7 6 4 2 0 1 3 3 3 3 3 3 3 3 3 3 3 2 2 1 0 0 0 0 0 0 0 0 0 0 0 0 0 0 0 0 0 0
7 9 11 10 7 5 3 2 2 2 3 3 3 3 3 3 3 3 3 3 3 3 3 2 1 0 0 0 0 0 0 0 0 0 0 0 0 0 0 0 0 0 0
4 5 8 8 6 4 3 3 3 5 5 4 3 3 3 3 3 2 2 2 2 2 1 1 0 0 0 0 0 0 0 0 0 0 0 0 0 0 0 0 0 0 0
1 3 6 7 5 4 3 4 5 6 6 5 4 3 3 3 2 1 1 1 1 1 0 0 0 0 0 0 0 0 0 0 0 0 0 0 0 0 0 0 0 0 0

GEFSMW_con_prob3kmehi_210.txt.gz
EHI
14 16 18 19 20 22 24 24 23 21 17 14 11 9 9 9 10 9 7 6 6 4 1 1 0 0 1 0 0 0 0 0 0 0 0 0 0 0 0 0 0 0 0
25 28 30 28 27 28 28 28 27 26 22 18 16 13 11 11 10 8 7 6 6 5 2 1 1 1 2 2 1 1 1 1 0 0 0 0 0 0 0 0 0 0 0
35 40 44 42 39 37 36 33 32 30 27 24 21 18 15 12 9 7 6 6 7 6 4 2 2 2 3 4 3 3 4 3 1 1 1 1 0 0 0 0 0 0 0
34 41 48 49 46 43 39 35 34 32 29 25 24 21 17 13 9 7 6 5 6 5 4 3 4 4 4 4 4 4 5 4 1 1 2 1 0 0 0 0 0 0 0
29 35 42 44 44 43 40 37 36 35 30 27 26 23 19 14 11 9 9 9 7 5 4 5 7 6 5 5 6 6 6 5 3 1 1 1 0 0 0 0 0 0 0
24 29 34 37 40 42 42 43 44 41 36 32 29 25 21 17 15 14 14 13 10 7 6 7 10 11 10 9 10 9 7 6 6 5 3 1 0 0 0 0 0 0 0
19 24 31 37 42 46 49 51 52 50 46 39 33 29 24 19 17 16 15 14 11 10 9 10 14 16 14 13 13 12 10 9 10 9 7 3 1 0 1 1 1 0 0
16 21 29 39 46 50 53 55 56 56 53 46 38 33 27 19 15 14 13 12 11 12 12 14 16 17 15 15 15 14 12 12 11 9 8 5 2 0 1 3 3 1 0
14 19 28 38 46 50 52 53 53 55 53 46 40 33 26 21 17 14 12 12 12 14 16 18 17 17 18 18 18 17 15 14 12 9 8 7 5 3 3 4 4 3 1
16 21 30 37 43 47 51 50 47 47 46 42 36 28 24 24 22 19 15 15 15 16 19 20 19 20 22 22 21 19 16 16 15 14 13 12 11 8 6 5 5 4 4
22 26 32 36 39 44 51 51 45 42 41 39 32 27 25 25 25 21 17 16 16 16 17 18 19 22 24 25 22 18 15 16 18 19 19 18 16 14 11 8 6 6 6
28 30 34 38 40 44 50 52 48 43 41 37 31 28 27 25 23 20 16 14 15 14 13 14 16 20 23 23 21 17 15 16 17 18 19 19 19 18 15 11 8 7 6
34 34 38 41 42 43 47 49 47 43 39 35 32 30 27 22 19 15 12 12 13 13 12 11 13 16 18 20 21 20 17 16 15 15 17 17 17 18 16 12 8 7 6
37 40 43 46 45 45 46 46 44 40 37 37 36 33 28 22 18 14 11 11 13 14 13 12 13 15 16 18 20 19 17 15 15 15 15 14 13 14 13 10 8 8 7
36 39 44 46 47 48 48 46 44 41 39 38 38 36 31 25 21 19 16 14 13 14 15 15 16 16 15 13 13 13 12 13 15 16 14 11 9 9 7 6 6 7 8
31 34 39 42 46 49 48 45 44 42 39 38 38 36 33 27 24 22 21 18 16 15 16 16 16 15 12 8 6 6 8 10 14 16 15 11 7 4 3 3 3 3 5
26 29 34 40 45 48 46 43 43 42 39 37 36 35 33 30 26 24 21 21 19 18 17 16 15 13 10 5 3 3 6 9 12 15 16 12 7 5 4 4 3 3 4
22 26 31 38 45 49 46 42 41 40 38 36 34 31 30 30 30 27 22 20 20 19 18 17 16 13 8 5 2 2 5 9 11 13 13 11 8 6 6 7 7 8 8
22 26 32 38 45 48 44 38 36 34 33 32 30 27 26 27 29 28 23 20 19 19 18 17 14 11 7 5 2 1 5 7 9 10 9 8 7 5 4 6 9 10 11
27 31 35 40 43 44 39 35 31 28 26 26 26 26 24 23 24 24 21 17 16 15 14 13 10 8 6 4 1 1 4 6 7 7 6 4 3 2 2 4 6 8 9
31 33 36 40 40 36 33 32 30 26 24 23 24 23 19 17 17 19 17 13 11 11 8 7 7 6 4 3 1 1 3 5 5 5 5 3 1 0 0 1 2 4 4
29 29 31 34 32 28 28 30 29 27 25 24 21 17 14 11 11 13 12 9 8 7 4 3 4 4 4 3 1 0 2 3 3 3 3 2 1 0 0 0 0 1 1
24 24 24 27 27 25 26 29 30 28 26 23 19 15 12 9 9 11 10 7 5 5 3 3 4 4 4 4 2 0 0 1 1 2 1 1 0 0 0 0 0 0 0
23 23 23 25 28 26 26 28 28 28 24 20 17 16 13 11 10 10 9 7 5 4 4 4 4 3 3 3 2 0 0 0 0 0 0 0 0 0 0 0 0 0 0
24 24 24 27 29 27 25 24 24 25 23 19 16 14 12 11 10 9 7 6 4 4 4 4 3 2 1 1 1 0 0 0 0 0 0 0 0 0 0 0 0 0 0
27 25 26 27 27 25 22 20 20 23 24 20 15 11 10 10 10 8 6 3 3 3 4 4 3 1 0 0 0 0 0 0 0 0 0 0 0 0 0 0 0 0 0

GEFSMW_con_prob3kmehi_216.txt.gz
EHI
53 58 60 60 66 74 77 73 68 65 57 47 40 34 29 29 27 27 32 31 24 18 13 12 16 16 14 14 13 12 8 5 3 2 2 2 4 7 7 5 6 9 10
59 64 67 68 72 78 80 77 73 69 61 52 45 39 35 32 29 32 38 36 28 21 18 18 20 18 15 15 16 17 13 8 7 6 4 2 2 4 5 4 5 6 8
66 73 78 77 78 82 83 81 79 76 69 61 52 47 43 37 32 37 44 42 34 27 26 27 25 20 16 17 20 23 19 12 10 11 8 3 2 2 2 2 3 5 6
69 77 83 83 81 83 85 85 85 82 77 68 59 53 49 43 39 41 45 44 36 31 32 34 33 25 20 21 25 25 22 16 11 11 12 8 3 1 1 2 3 4 5
67 75 82 83 82 81 84 88 89 87 83 75 67 60 53 47 43 44 45 44 37 32 33 38 38 33 27 28 30 29 26 21 14 11 13 12 7 3 1 1 2 2 3
61 69 77 82 83 82 83 88 91 89 86 80 74 67 58 49 44 43 44 42 36 34 35 38 41 38 32 31 33 31 28 24 18 15 16 16 12 7 3 1 1 1 2
51 59 71 79 83 85 86 88 90 89 85 82 77 71 62 52 45 43 42 38 34 37 41 42 43 40 33 31 33 31 27 23 20 19 20 20 17 11 6 2 1 1 2
42 52 66 77 82 85 87 88 90 89 85 80 76 71 64 54 47 45 42 37 35 40 47 50 47 43 36 32 33 31 27 25 23 22 23 23 19 13 7 4 3 2 1
34 47 64 74 80 83 84 86 88 88 84 78 75 70 64 55 48 45 43 39 37 41 48 51 49 46 40 37 35 32 29 28 27 26 26 25 19 13 9 7 6 3 2
30 43 61 71 77 81 82 83 84 83 80 75 70 67 64 57 50 46 44 43 41 41 42 44 43 42 42 40 35 32 30 29 28 27 28 28 22 14 10 9 7 5 4
31 42 57 68 74 77 78 81 81 79 75 71 66 63 62 59 54 49 47 47 44 41 38 35 33 34 37 38 34 29 28 27 26 26 27 28 23 15 11 9 7 5 5
38 45 57 67 71 71 72 75 77 75 72 67 63 60 58 56 54 51 48 47 45 41 38 34 30 30 33 35 32 27 24 24 25 24 24 24 21 16 13 10 8 7 7
46 52 61 67 68 65 65 67 69 69 66 63 61 59 55 53 53 51 49 47 45 42 40 38 34 30 30 31 28 24 21 20 21 21 21 20 19 17 14 11 11 10 9
50 57 65 69 67 64 62 62 63 64 62 59 58 58 56 54 51 51 52 50 46 42 40 37 33 29 26 25 23 20 17 16 17 19 19 18 16 14 12 11 12 12 11
47 55 65 69 68 66 64 63 64 64 61 57 55 55 55 53 51 50 51 49 45 41 38 31 26 24 20 17 18 18 17 17 18 18 18 15 12 10 7 7 8 9 9
45 53 63 66 67 66 66 67 66 62 58 54 52 52 52 51 50 48 47 45 42 40 35 28 21 18 15 11 11 14 16 19 19 18 15 12 9 7 4 3 4 4 4
48 54 59 62 64 65 67 66 62 55 51 50 51 52 51 49 47 45 44 43 41 39 36 30 22 18 14 9 5 5 10 14 17 16 14 11 8 7 6 5 3 3 2
47 50 52 55 59 63 65 61 53 49 46 46 47 48 48 45 43 41 40 40 39 38 36 31 24 19 14 8 2 1 3 9 12 14 13 12 10 8 7 6 6 5 5
42 43 44 47 54 59 60 55 49 47 45 43 42 41 41 42 41 40 39 38 36 35 32 26 22 18 12 7 3 2 3 8 11 12 11 10 9 6 4 4 5 5 6
40 40 41 45 52 55 53 51 49 48 45 42 39 37 38 40 41 40 39 37 35 32 27 22 18 16 13 8 4 3 7 9 10 10 9 7 5 3 1 2 3 2 2
41 41 43 48 51 49 46 45 44 44 42 38 37 37 37 38 37 35 34 32 30 28 23 19 16 15 13 9 4 3 6 7 7 8 8 6 2 1 0 1 1 0 0
44 46 48 50 48 43 40 39 37 36 35 35 35 35 33 31 29 28 27 24 22 20 18 15 13 12 11 7 3 1 2 3 4 6 6 4 1 0 0 0 0 0 0
45 47 47 46 43 39 38 37 34 32 34 35 35 31 28 25 23 22 20 17 14 12 10 8 8 8 8 7 3 0 0 0 1 3 2 1 0 0 0 0 0 0 0
40 41 42 40 39 38 38 37 36 34 36 36 33 27 23 22 20 16 13 9 7 7 6 5 5 6 6 5 3 0 0 0 0 1 1 1 0 0 0 0 0 0 0
36 36 36 36 37 37 37 36 35 34 34 34 29 22 18 19 17 12 7 4 3 4 4 6 7 6 4 2 1 0 0 0 0 0 1 1 0 0 0 0 0 0 0
35 35 34 35 36 37 36 34 33 33 32 31 26 19 16 17 16 11 5 2 2 2 2 5 7 6 3 1 0 0 0 0 0 0 1 1 0 0 0 0 0 0 0

GEFSMW_con_prob3kmehi_222.txt.gz
EHI
39 45 51 52 50 48 46 44 42 38 33 25 16 8 4 2 1 1 1 2 2 1 1 0 0 0 0 0 0 0 0 0 0 0 0 0 0 0 0 0 0 0 0
42 48 52 52 50 48 48 47 45 40 34 27 20 12 6 3 1 0 0 1 1 2 2 1 0 0 0 0 0 0 0 0 0 0 0 0 0 0 0 0 0 0 0
47 51 54 53 52 50 49 48 46 43 38 33 29 22 12 6 3 1 1 1 1 3 5 4 2 1 1 1 1 0 1 1 0 0 0 0 0 0 0 0 0 0 0
48 53 55 56 55 53 51 48 48 47 45 41 37 28 18 10 6 3 3 3 3 4 7 7 5 4 4 3 3 2 3 2 1 1 0 0 0 0 0 0 0 0 0
43 49 55 58 58 56 54 51 51 52 51 47 39 28 19 13 9 6 5 5 5 6 7 7 7 7 7 6 5 5 5 4 3 2 1 0 0 0 0 0 0 0 0
37 42 51 58 61 60 58 57 56 55 54 49 40 29 21 16 12 9 7 7 8 7 7 6 7 9 9 8 6 6 5 5 4 3 3 1 0 0 0 0 0 0 0
35 39 48 57 62 63 63 63 62 59 56 52 43 33 24 18 15 12 10 9 9 8 6 6 7 10 10 8 6 5 4 4 3 4 4 3 1 0 0 0 0 0 0
39 43 50 56 60 63 66 67 67 64 60 56 48 38 28 22 17 12 10 9 8 7 6 6 7 8 8 7 5 5 4 3 3 4 5 4 3 1 0 0 0 0 0
47 49 52 54 57 61 65 68 67 64 61 58 53 43 33 26 18 12 9 8 7 8 8 8 7 6 6 5 5 6 5 4 3 3 4 4 3 2 0 0 0 0 0
52 54 56 55 56 59 64 65 64 62 60 58 55 47 37 27 19 13 10 9 9 10 11 10 8 8 7 6 6 6 5 4 3 3 3 2 2 1 0 0 0 0 0
49 55 59 59 57 57 60 60 60 60 60 58 55 48 36 25 18 14 11 11 11 11 12 12 11 10 10 8 7 6 4 4 3 2 1 1 1 0 0 0 0 1 1
44 50 57 59 57 56 55 56 56 57 58 57 53 45 34 25 21 17 13 13 13 12 12 12 11 11 10 8 7 7 6 4 2 1 0 0 0 0 0 0 0 1 2
42 46 52 54 54 54 53 52 53 54 53 53 48 39 30 26 24 21 18 16 14 11 9 10 10 9 8 7 7 8 7 3 1 0 0 0 0 0 0 0 0 1 2
41 44 48 50 51 51 50 48 47 47 46 44 41 34 28 25 25 23 21 19 14 10 8 7 8 7 7 6 5 6 6 3 0 0 0 0 0 0 1 1 0 0 1
41 44 46 47 46 47 45 42 39 36 34 35 35 32 27 26 26 26 23 17 13 10 7 7 7 7 7 5 4 4 3 2 1 1 1 0 1 1 1 1 0 0 0
40 43 44 42 41 42 41 37 33 28 27 29 31 30 28 27 27 26 22 16 12 10 9 7 7 7 6 5 3 3 2 2 2 2 1 1 2 2 2 1 0 0 0
37 40 41 39 38 38 38 35 30 26 25 26 28 30 30 29 26 23 19 15 12 11 10 9 8 7 5 3 2 2 2 2 2 2 2 2 3 3 3 1 0 0 0
33 35 37 37 37 38 37 33 29 26 25 25 28 30 30 29 24 19 17 14 12 11 9 8 8 8 5 3 2 1 1 1 2 2 3 2 2 2 3 2 0 0 0
31 31 33 35 36 36 34 31 29 26 24 25 27 28 28 25 21 17 15 13 11 7 6 6 6 6 5 4 2 1 1 1 1 1 1 1 0 1 1 1 0 0 0
31 31 33 34 31 29 29 29 26 23 20 20 24 26 24 21 17 15 14 12 8 6 4 4 4 4 4 4 3 1 1 1 1 0 0 0 0 0 0 0 0 0 0
31 32 33 31 25 23 25 24 21 17 14 14 18 21 21 18 14 12 11 10 8 6 5 4 3 3 3 3 2 1 0 0 0 0 0 0 0 0 0 0 0 0 0
33 33 31 27 22 22 23 20 16 14 12 12 14 17 18 18 14 11 9 8 7 6 4 3 3 3 3 2 1 0 0 0 0 0 0 0 0 0 0 0 0 0 0
34 32 30 26 24 22 21 18 15 13 13 12 13 16 17 16 14 10 7 5 5 5 4 3 3 3 3 1 0 0 0 0 0 0 0 0 0 0 0 0 0 0 0
28 29 27 25 23 22 20 18 16 15 13 13 13 14 15 14 11 7 4 3 4 4 3 2 3 3 2 1 0 0 0 0 0 0 0 0 0 0 0 0 0 0 0
23 24 23 21 19 19 19 19 18 15 13 12 11 10 10 9 7 4 2 2 3 2 1 1 1 2 1 0 0 0 0 0 0 0 0 0 0 0 0 0 0 0 0
22 22 20 19 17 17 18 18 17 14 11 11 9 8 8 6 4 2 1 1 1 1 0 0 0 1 0 0 0 0 0 0 0 0 0 0 0 0 0 0 0 0 0

GEFSMW_con_prob3kmehi_228.txt.gz
EHI
5 7 9 12 17 19 19 16 14 12 9 5 2 1 1 1 1 2 2 1 0 0 0 0 0 0 0 0 0 0 0 0 0 0 0 0 0 0 0 0 0 0 0
6 7 9 11 15 19 22 21 19 18 15 10 5 2 1 1 2 2 1 0 0 0 0 0 0 0 0 0 0 0 0 0 0 0 0 0 0 0 0 0 0 0 0
7 9 11 12 16 20 24 25 23 22 20 15 12 10 7 5 3 2 0 0 0 0 0 0 0 0 0 0 0 0 0 0 0 0 0 0 0 0 0 0 0 0 0
9 11 14 16 18 22 23 24 24 22 20 20 21 20 14 8 4 2 1 0 0 1 1 0 0 0 0 0 0 0 0 1 1 0 0 0 0 0 0 0 0 0 0
9 12 16 19 20 22 23 24 23 21 19 20 24 24 15 7 4 3 1 0 0 1 1 0 0 0 0 0 0 0 1 2 1 0 0 0 0 0 0 0 0 0 0
8 12 17 20 22 25 28 28 26 21 17 16 19 19 13 6 4 3 3 1 1 1 1 0 0 0 0 1 1 1 1 2 2 1 1 0 0 0 0 0 0 0 0
8 12 17 21 26 31 34 35 32 26 21 19 19 17 13 8 6 5 4 3 2 1 1 0 0 0 0 1 1 1 1 2 3 2 2 1 1 0 0 0 0 0 0
10 12 18 25 32 35 38 40 39 35 31 27 24 20 14 10 7 6 5 4 3 3 2 1 0 0 0 0 1 1 2 2 2 2 2 2 2 1 0 0 0 0 0
11 13 18 26 33 36 38 41 43 41 37 32 28 24 17 11 9 7 6 5 4 4 5 3 1 1 1 0 0 1 1 1 1 1 1 2 2 1 0 0 0 0 0
12 13 17 24 29 32 36 42 44 42 37 33 30 25 19 14 11 9 7 6 5 5 5 4 3 1 1 1 0 0 0 0 0 0 0 1 1 1 0 0 0 0 0
12 14 17 22 27 31 36 40 41 39 36 33 30 26 21 16 12 9 6 5 4 4 4 4 3 3 2 2 1 0 0 0 0 0 0 0 0 0 0 0 0 0 1
13 15 19 24 28 34 37 37 37 37 35 32 28 26 23 18 12 6 3 3 2 3 3 3 4 3 3 3 2 1 0 0 0 0 0 0 0 0 0 0 1 1 2
15 17 21 24 28 33 34 32 33 34 33 30 27 25 23 18 10 3 1 1 1 2 3 4 4 4 3 3 3 2 1 0 0 0 0 0 0 0 0 1 2 2 2
16 18 20 23 26 28 29 28 27 30 30 28 26 24 22 16 8 2 0 0 1 2 3 3 4 3 3 3 4 3 1 0 0 0 0 0 1 0 1 2 3 3 2
17 20 22 22 23 25 28 27 25 25 26 25 23 21 18 14 8 2 0 0 1 3 4 3 3 3 3 3 4 3 1 0 0 0 0 0 0 0 1 2 3 3 2
20 22 22 21 20 22 26 27 23 21 20 20 19 18 16 15 9 3 0 1 2 4 5 5 5 4 3 2 2 3 2 1 0 0 0 0 0 0 1 1 1 1 2
22 21 19 16 16 17 21 23 21 19 18 18 18 18 17 16 11 5 2 2 4 6 7 7 7 5 3 1 1 1 1 1 1 1 1 2 1 2 2 1 1 1 1
19 18 15 13 12 15 18 19 18 17 18 19 20 20 17 15 12 8 4 3 4 6 7 7 7 5 2 1 0 0 0 1 1 2 2 2 2 2 2 2 2 1 1
15 15 13 11 12 15 16 15 15 15 16 19 20 19 16 13 11 9 6 5 5 6 6 6 5 4 2 0 0 0 0 0 1 1 1 1 1 1 1 1 1 1 0
16 15 14 13 12 13 13 13 13 14 16 18 18 16 14 12 10 9 8 7 6 5 4 4 4 4 2 1 0 0 0 0 0 0 0 0 0 0 0 0 0 0 0
20 19 17 15 14 13 12 12 13 14 16 17 16 14 13 12 10 9 8 7 6 5 4 3 3 3 3 1 0 0 0 0 0 0 0 0 0 0 0 0 0 0 0
21 20 18 17 16 15 13 13 12 12 14 15 15 14 13 12 11 10 8 7 7 6 5 4 3 3 2 1 0 0 0 0 0 0 0 0 0 0 0 0 0 0 0
20 19 17 17 17 15 14 13 12 12 12 12 13 12 12 12 12 10 8 8 8 7 5 3 2 1 1 1 0 0 0 0 0 0 0 0 0 0 0 0 0 0 0
17 16 14 14 13 13 13 13 12 11 10 10 11 11 9 9 10 9 7 6 6 6 4 2 1 0 0 0 0 0 0 0 0 0 0 0 0 0 0 0 0 0 0
13 12 11 11 11 11 12 12 11 9 8 7 8 8 7 7 8 7 5 3 3 3 2 1 1 0 0 0 0 0 0 0 0 0 0 0 0 0 0 0 0 0 0
10 9 10 11 12 12 12 12 9 8 7 6 6 7 7 6 7 6 4 2 1 1 1 1 1 0 0 0 0 0 0 0 0 0 0 0 0 0 0 0 0 0 0

GEFSMW_con_prob3kmehi_234.txt.gz
EHI
5 7 9 9 8 10 13 14 13 12 10 7 7 8 9 10 9 8 8 8 7 3 1 1 1 2 3 3 1 0 0 1 1 1 1 0 0 1 1 1 0 0 0
7 10 13 12 13 16 17 17 16 15 13 10 7 7 9 11 11 10 10 9 8 5 3 2 1 1 2 3 2 1 1 2 2 2 2 1 0 0 1 1 2 2 1
8 14 19 20 20 22 22 20 18 19 19 17 12 10 12 13 13 13 13 12 11 8 7 5 2 1 2 2 1 1 2 4 4 4 4 3 1 0 0 2 3 4 3
8 13 20 22 22 21 22 21 21 23 26 25 21 19 19 16 14 14 15 15 13 11 8 5 3 2 2 1 1 2 3 4 5 6 6 5 4 2 1 1 2 3 4
8 10 15 18 19 18 19 23 27 31 33 33 29 27 23 18 15 17 18 18 16 13 8 4 3 3 1 1 3 4 4 4 5 6 7 7 7 6 4 2 0 1 2
10 10 11 14 17 19 22 27 35 40 40 36 32 30 27 22 20 20 20 19 17 15 10 6 4 3 2 4 7 10 8 5 5 6 8 8 9 8 6 3 1 0 0
12 13 13 14 18 23 28 34 40 43 41 37 33 32 30 27 25 23 21 18 16 15 13 9 6 5 4 6 10 13 11 7 6 7 9 9 9 8 6 4 1 0 0
13 14 14 14 18 25 32 37 40 41 38 36 35 34 34 31 28 27 22 17 14 13 12 11 9 8 7 8 11 12 10 8 7 8 9 9 8 8 7 5 2 1 0
13 13 14 15 17 23 30 37 41 41 37 35 35 36 37 35 32 29 25 19 15 13 14 14 12 11 10 11 11 10 9 8 7 7 8 8 7 6 6 6 4 2 1
15 14 15 17 18 22 28 35 40 41 37 34 33 35 38 39 36 33 29 22 18 18 19 18 17 14 12 11 12 12 11 9 8 8 8 8 6 6 8 10 9 7 4
16 16 17 19 20 23 29 34 37 40 39 37 37 37 38 38 38 38 33 26 22 21 21 21 20 16 11 10 11 11 10 10 9 8 8 8 8 10 13 15 15 12 10
18 20 21 23 26 30 33 35 39 43 45 46 45 43 41 40 39 38 34 29 24 21 19 18 17 13 10 10 11 11 9 10 11 11 10 10 12 13 15 16 16 15 14
22 25 28 30 35 40 41 42 46 49 52 53 50 48 47 45 42 37 32 29 25 20 16 13 11 9 9 11 13 12 11 12 13 14 14 14 14 15 15 14 13 14 14
26 31 35 37 41 45 46 48 51 52 52 52 50 50 49 46 41 36 31 28 24 18 13 9 7 7 10 12 13 13 12 13 13 14 15 15 13 12 12 10 10 11 11
26 34 41 41 43 45 46 49 52 52 51 50 48 47 44 39 35 33 29 25 21 16 11 7 6 7 8 9 10 10 10 12 12 12 13 13 10 7 6 6 7 8 9
25 34 41 44 46 47 47 49 51 52 50 49 46 41 34 30 28 27 24 22 19 15 11 8 7 7 7 6 5 5 7 10 11 12 13 10 6 5 4 3 3 4 7
26 31 38 45 50 49 48 49 51 51 49 46 41 34 28 27 25 23 22 21 20 17 14 11 9 9 8 5 2 1 4 7 10 13 12 8 4 4 5 4 3 3 4
29 31 36 42 47 46 44 46 47 45 42 37 32 29 27 27 26 24 24 23 22 19 15 14 13 12 10 5 1 1 3 7 10 10 8 6 4 4 6 7 6 5 3
36 36 36 37 39 39 39 41 41 37 33 28 24 24 27 27 25 25 25 25 23 19 15 15 15 14 10 5 1 2 6 9 9 7 5 4 4 3 4 6 6 5 4
40 39 38 36 35 35 37 39 37 32 27 23 19 21 24 25 24 25 25 24 23 19 15 14 13 13 10 5 2 3 7 10 9 7 4 3 3 2 2 3 3 3 2
37 38 39 39 36 35 37 35 31 26 22 19 18 20 22 23 24 25 24 22 20 17 15 13 11 10 8 5 3 3 6 8 9 7 5 3 1 1 0 1 1 1 1
36 38 40 40 37 35 34 31 25 19 17 17 19 20 22 23 23 23 22 19 16 16 16 14 11 9 7 6 3 2 2 5 7 7 4 2 1 0 0 0 0 0 0
37 38 38 38 35 32 30 26 20 15 14 17 19 19 19 20 21 22 20 17 14 14 16 15 12 9 9 7 4 1 1 2 4 4 2 1 0 0 0 0 0 0 0
34 34 34 34 33 30 25 21 17 14 13 16 18 17 14 14 17 18 17 15 13 14 15 14 11 10 11 8 5 3 3 2 2 2 1 0 0 0 0 0 0 0 0
26 26 28 30 29 25 20 17 16 14 13 14 16 15 12 11 13 13 12 11 11 11 11 10 9 10 10 7 5 4 3 3 2 2 0 0 0 0 0 0 0 0 0
21 22 23 25 25 20 16 14 15 14 12 13 15 14 11 10 11 10 9 8 8 7 6 6 8 9 8 4 3 2 2 2 2 1 0 0 0 0 0 0 0 0 0

GEFSMW_con_prob3kmehi_240.txt.gz
EHI
21 24 26 29 39 47 49 44 40 40 39 36 30 25 20 18 20 28 34 32 24 17 15 14 16 15 13 12 12 11 9 7 5 3 1 2 3 6 8 9 9 9 10
30 36 36 36 43 51 52 48 44 42 39 35 30 26 22 19 20 28 35 32 25 19 16 19 21 18 15 14 15 13 10 7 6 4 2 1 2 3 6 8 10 10 9
40 47 50 47 48 52 54 51 48 47 42 36 31 29 28 24 24 30 37 36 29 24 22 24 25 22 18 16 17 17 14 9 6 5 3 2 2 2 3 6 9 9 9
45 52 58 56 51 51 55 57 57 54 49 42 36 35 34 30 29 34 40 41 36 30 28 28 27 25 19 16 16 17 15 10 6 5 5 5 4 3 2 4 6 8 10
42 50 58 59 53 49 54 63 66 63 57 51 44 40 36 32 32 37 43 43 38 34 32 31 30 27 21 16 14 13 12 9 7 6 7 6 6 4 2 2 3 6 9
34 41 54 60 55 49 53 63 70 68 63 56 49 43 37 34 35 40 43 40 35 33 35 35 33 31 25 20 15 12 11 10 9 9 8 6 6 5 3 2 1 3 4
27 34 48 58 58 55 57 64 69 69 66 59 53 47 42 38 38 40 41 38 34 34 36 36 35 33 29 24 20 17 14 14 14 13 11 9 7 7 5 2 0 0 1
25 29 40 49 55 59 62 65 68 68 66 62 57 52 47 42 40 41 41 39 37 36 37 37 35 32 26 23 22 21 19 19 19 16 14 12 10 8 6 3 1 1 1
23 25 32 43 53 60 65 67 67 67 65 63 60 54 49 45 42 43 44 42 39 39 40 40 35 30 24 20 20 20 21 23 22 19 16 15 12 9 7 7 6 4 3
22 25 32 44 55 62 66 68 67 65 63 63 61 57 54 51 48 47 47 45 42 41 42 41 36 31 26 21 18 17 18 21 22 20 17 16 14 12 11 11 11 8 5
20 25 32 41 49 55 61 66 67 65 64 64 63 62 61 59 55 52 51 49 46 45 43 41 37 31 27 23 19 16 14 15 17 16 14 14 15 16 13 11 10 9 6
21 26 31 33 38 47 55 62 66 67 66 66 65 65 66 64 61 56 54 52 50 46 44 42 37 30 25 21 18 15 13 12 12 11 9 11 15 16 14 10 8 7 7
24 30 36 37 41 47 55 61 66 68 67 66 65 66 67 67 63 59 56 53 50 46 44 42 36 29 22 17 14 12 11 10 10 9 8 10 15 16 13 11 8 6 5
27 37 48 51 52 54 57 63 67 69 67 65 64 64 65 65 62 59 56 51 46 44 42 39 32 24 17 11 9 10 11 11 10 9 9 10 13 14 11 9 7 5 4
29 41 53 58 58 58 60 63 67 68 67 64 63 63 62 60 57 55 53 48 41 39 38 34 25 15 9 7 7 9 10 10 10 10 10 9 9 9 7 5 4 3 2
32 41 51 57 59 61 62 63 65 66 66 64 61 61 60 57 53 49 47 44 38 35 34 29 20 11 7 5 5 5 7 8 9 10 11 9 8 6 3 2 1 1 1
33 39 48 56 60 62 62 63 64 64 62 59 57 57 57 55 50 46 44 43 38 34 31 28 22 14 9 5 2 3 4 6 8 10 10 10 8 6 4 2 1 0 0
35 39 46 52 57 59 61 62 62 59 56 53 51 52 52 52 48 43 42 41 38 34 31 30 24 17 11 5 1 1 4 7 8 9 9 9 8 7 5 3 2 1 0
40 41 42 47 53 57 58 59 58 55 51 48 47 46 46 45 41 37 37 38 37 34 31 29 23 16 10 5 1 1 4 7 8 7 7 7 6 5 4 3 2 2 1
44 44 44 47 52 54 54 54 54 52 49 46 45 43 40 38 35 33 34 36 35 32 29 24 19 15 11 6 1 2 6 8 8 7 7 6 4 3 2 2 3 3 2
46 47 48 50 52 51 49 48 48 47 45 43 42 39 36 33 33 33 33 33 32 30 26 20 16 15 12 7 2 2 5 7 8 9 9 6 3 1 1 1 2 2 1
44 47 50 50 50 48 45 43 41 40 39 39 37 35 32 29 30 31 30 28 27 26 24 19 15 14 12 8 2 1 2 4 7 8 8 5 2 0 0 0 1 1 0
43 44 47 48 46 44 42 40 37 36 35 34 31 28 26 24 23 24 22 21 21 22 21 18 15 13 13 9 3 0 0 1 3 5 4 2 0 0 0 0 0 0 0
42 42 43 44 43 41 40 38 35 32 31 30 27 23 20 17 15 15 14 14 16 17 16 14 14 13 13 10 6 3 2 2 2 2 1 0 0 0 0 0 0 0 0
39 39 39 39 39 39 38 35 32 30 30 28 24 20 16 12 10 10 9 9 11 12 9 8 9 10 10 9 7 5 4 3 2 1 1 1 0 0 0 0 0 0 0
39 38 36 35 36 36 35 32 30 30 30 27 23 18 14 11 9 9 7 5 6 6 4 4 6 6 6 5 4 4 4 3 2 1 2 2 1 0 0 0 0 0 0

GEFSMW_con_prob3kmehi_246.txt.gz
EHI
8 13 19 24 30 31 27 24 20 16 13 10 8 6 5 5 6 7 8 9 7 6 5 5 4 3 2 2 2 3 2 1 0 0 0 0 0 0 0 0 0 0 0
11 16 22 27 33 35 32 29 27 23 18 13 9 7 6 6 6 7 8 9 8 7 6 5 4 4 3 2 2 3 1 0 0 0 0 0 0 0 0 0 0 0 0
17 22 28 31 35 38 37 36 35 31 25 19 15 12 10 7 7 8 8 8 8 9 8 7 6 6 3 2 2 2 1 0 0 0 0 0 0 0 0 0 0 0 0
19 25 31 34 36 38 40 41 40 35 30 26 23 20 15 10 9 9 9 8 8 10 11 10 9 8 5 3 3 2 0 0 0 0 0 0 0 0 0 0 0 0 0
18 24 31 36 38 40 44 46 45 38 32 30 29 27 20 14 12 11 9 8 8 10 12 12 10 9 7 6 5 2 1 0 0 0 0 0 0 0 0 0 0 0 0
19 24 32 38 43 46 49 51 50 44 37 34 33 31 27 21 16 13 10 8 9 10 13 13 11 10 9 8 5 2 1 0 0 0 0 0 0 0 0 0 0 0 0
21 27 35 42 48 51 53 54 54 50 45 42 38 33 31 27 22 17 14 11 10 10 13 14 13 11 10 9 6 2 0 0 0 0 0 0 0 0 0 0 0 0 0
21 29 38 44 48 52 55 56 56 53 51 48 42 35 32 30 26 21 18 16 13 11 12 14 14 11 9 8 6 3 1 0 0 0 0 0 0 0 0 0 0 0 0
17 25 35 41 47 51 54 55 57 55 53 51 45 37 33 32 29 25 21 19 17 14 13 13 12 10 8 7 6 4 2 1 1 0 0 0 0 0 0 0 0 0 0
15 20 29 38 44 48 48 51 56 57 55 52 47 41 38 37 33 27 22 20 20 18 15 13 11 10 8 7 6 5 3 2 1 0 0 0 0 0 0 0 0 0 0
16 20 27 34 39 41 45 49 55 57 56 53 50 48 47 43 37 29 23 20 20 19 16 13 12 12 11 9 7 6 4 2 1 0 0 0 0 0 0 0 0 0 0
20 21 25 31 33 37 44 51 53 54 54 54 53 53 51 46 40 33 25 21 20 18 16 14 13 12 12 10 9 7 5 3 2 1 0 0 0 0 0 0 1 1 1
21 22 25 29 31 36 44 50 51 51 52 54 56 54 50 47 43 37 29 23 19 17 16 15 13 13 12 11 10 8 6 5 4 2 1 1 1 1 1 2 2 2 2
21 22 27 30 32 36 44 49 50 50 52 55 56 54 48 44 41 35 29 24 19 17 15 14 13 12 11 9 9 8 5 4 3 3 2 2 2 3 4 4 3 3 3
22 24 30 35 37 40 44 48 50 51 52 54 55 50 42 37 33 28 25 22 18 15 13 11 10 9 8 6 6 5 4 2 1 2 3 3 4 5 5 4 3 2 2
26 29 34 40 42 42 43 46 49 50 51 52 51 45 37 30 26 23 21 19 17 15 14 12 8 5 4 3 2 2 2 1 1 1 2 3 4 4 3 2 1 1 1
33 34 37 41 42 40 41 44 46 47 48 47 44 39 33 27 25 23 20 19 19 19 18 16 12 6 3 1 1 1 1 0 0 1 1 1 2 2 1 1 1 0 0
35 36 37 38 38 37 38 41 43 43 43 41 37 31 28 26 26 25 23 22 23 21 20 20 16 10 5 2 1 0 0 0 0 0 0 0 1 1 2 2 1 0 0
32 33 35 36 35 35 36 38 40 40 38 36 31 26 24 24 25 24 24 23 21 17 16 17 14 11 7 4 1 0 0 0 0 0 0 0 0 1 1 2 1 0 0
29 31 33 34 34 33 35 37 38 37 34 31 26 22 21 22 22 22 22 20 15 11 10 10 10 8 6 4 1 0 0 0 0 0 1 1 0 0 1 1 1 0 0
28 30 32 31 30 30 33 35 34 31 28 25 21 18 19 20 20 20 19 15 10 7 6 6 5 5 4 2 1 0 0 0 0 1 2 2 1 0 0 0 0 0 0
29 31 31 29 26 27 29 28 24 21 18 16 14 14 16 18 18 17 16 12 8 6 5 4 4 4 2 1 0 0 0 0 0 1 2 2 1 0 0 0 0 0 0
31 32 31 29 27 25 24 21 17 12 9 9 9 10 12 13 13 12 11 9 7 5 4 3 4 4 2 0 0 0 0 0 0 1 2 2 1 0 0 0 0 0 0
30 31 31 28 25 22 19 16 13 10 8 8 8 8 9 9 8 8 7 7 6 5 4 3 4 4 2 1 0 0 0 0 0 0 1 1 0 0 0 0 0 0 0
23 25 26 23 19 17 14 11 10 9 10 10 8 6 6 6 4 4 4 4 4 4 3 2 3 4 3 1 0 0 0 0 0 0 0 0 0 0 0 0 0 0 0
19 20 19 17 16 14 12 10 8 8 9 10 8 5 4 4 3 2 2 1 1 2 2 1 2 4 3 2 1 0 0 0 0 0 0 0 0 0 0 0 0 0 0

GEFSMW_con_prob3kmehi_252.txt.gz
EHI
0 0 1 1 2 2 2 1 1 2 3 4 4 3 1 1 2 3 3 3 3 3 3 3 3 3 3 3 2 1 0 0 0 0 0 0 0 0 0 0 0 0 0
0 1 2 3 4 4 4 4 4 4 4 4 4 4 4 3 4 4 3 3 3 3 3 3 3 3 3 3 2 1 0 0 0 0 0 0 0 0 0 0 0 0 0
2 2 4 5 6 6 6 6 6 6 5 5 6 8 8 8 7 5 4 3 3 3 3 3 3 3 3 2 1 1 0 0 0 0 0 0 0 0 0 0 0 0 0
5 5 7 8 10 10 8 7 7 6 6 9 12 13 12 10 8 6 4 3 2 1 2 3 3 3 2 1 0 0 0 0 0 0 0 0 0 0 0 0 0 0 0
6 7 9 11 13 14 12 9 8 7 9 15 20 18 15 12 8 5 3 2 2 1 1 3 3 3 2 0 0 0 0 1 0 0 0 0 0 0 0 0 0 0 0
7 8 10 13 15 16 15 11 9 9 12 19 24 23 18 14 10 5 2 1 1 1 1 3 3 3 2 1 0 0 0 0 0 0 0 0 0 0 0 0 0 0 0
7 9 11 14 17 17 16 14 13 14 17 22 27 27 23 18 14 9 4 2 2 3 3 3 3 4 3 2 1 0 0 0 0 0 0 0 0 0 0 0 0 0 0
8 9 11 13 17 19 19 19 20 20 21 25 29 29 26 23 19 14 9 6 6 5 4 3 3 4 4 3 2 1 1 1 0 0 0 0 0 0 0 0 0 0 0
9 8 9 11 15 18 19 21 24 24 23 25 28 27 25 23 21 18 14 10 8 7 5 4 3 3 4 4 3 3 2 2 1 0 0 0 0 0 0 0 0 0 0
8 8 8 9 11 14 16 18 21 22 22 24 26 25 22 20 20 18 15 12 10 7 6 5 3 3 4 4 3 3 3 3 2 1 0 0 0 0 0 0 0 0 0
8 8 8 8 9 14 16 16 18 22 24 27 28 26 21 18 18 17 16 14 11 8 6 4 3 3 4 3 3 3 3 3 3 2 1 0 0 0 0 0 0 0 1
7 7 7 8 11 16 18 18 19 24 27 29 30 29 23 19 18 18 18 17 14 9 6 4 4 4 4 4 4 3 3 3 3 3 2 1 0 0 0 0 0 1 2
8 7 8 9 13 18 20 19 21 26 30 32 31 30 25 22 20 18 19 18 14 8 5 5 5 6 6 6 5 3 3 3 3 3 2 1 0 0 0 0 0 2 3
12 11 12 13 15 18 20 21 23 28 33 35 34 30 26 23 20 17 16 16 12 7 4 5 5 6 6 6 5 3 3 3 3 2 1 0 0 0 0 0 0 1 2
14 15 15 15 15 18 20 22 24 28 33 37 35 30 26 23 19 16 14 14 12 8 5 5 4 5 5 4 4 4 4 3 1 1 0 0 0 0 0 0 0 1 2
16 16 17 16 16 19 22 24 25 27 31 34 32 28 24 22 19 16 15 15 13 10 8 6 5 5 4 3 3 3 4 3 1 0 0 0 0 0 0 0 0 0 1
18 18 17 17 17 20 23 25 25 26 29 30 29 26 22 20 17 16 16 15 11 9 9 8 6 5 4 2 1 1 2 2 1 0 0 0 0 0 1 1 0 0 0
19 18 17 17 18 20 23 26 27 26 26 26 25 23 21 18 16 16 16 14 10 9 9 9 7 4 2 1 0 0 1 1 0 0 0 0 0 0 1 1 0 0 0
16 15 14 16 19 21 23 26 27 25 24 21 20 19 17 17 17 17 16 14 11 10 10 9 7 4 1 0 0 0 0 0 0 0 0 0 0 0 0 0 0 0 0
14 13 12 14 18 20 21 23 23 21 19 17 14 14 14 14 15 16 15 14 12 11 11 9 6 3 1 0 0 0 0 0 0 1 1 1 0 0 0 0 0 0 0
16 13 11 12 14 16 17 18 17 15 14 12 10 10 10 11 13 14 14 13 11 11 10 9 6 3 2 0 0 0 0 0 0 1 2 1 0 0 0 0 0 0 0
16 14 10 10 12 13 13 12 12 10 9 7 6 6 7 8 11 13 13 11 10 9 9 8 5 3 1 0 0 0 0 0 0 1 1 0 0 0 0 0 0 0 0
14 12 10 10 10 10 9 9 9 8 5 3 2 2 3 6 9 11 11 10 8 7 7 7 5 3 1 0 0 0 0 0 0 0 0 0 0 0 0 0 0 0 0
9 9 9 9 8 8 7 8 9 8 5 2 0 0 1 4 7 8 8 7 6 6 6 6 6 4 2 0 0 0 0 0 0 0 0 0 0 0 0 0 0 0 0
4 5 6 7 7 7 6 7 8 8 5 2 1 0 0 2 5 5 5 4 4 4 4 5 5 3 1 0 0 0 0 0 0 0 0 0 0 0 0 0 0 0 0
2 3 5 6 6 6 6 7 7 7 5 3 2 1 1 2 4 4 2 1 1 2 2 2 4 3 1 0 0 0 0 0 0 0 0 0 0 0 0 0 0 0 0

GEFSMW_con_prob3kmehi_258.txt.gz
EHI
0 0 0 0 0 0 2 5 8 11 14 12 8 6 6 6 6 7 6 6 7 6 4 3 3 4 5 5 4 4 3 4 4 2 1 1 1 1 1 1 0 0 0
0 1 1 1 1 1 3 7 11 14 16 15 12 10 8 7 7 8 8 7 8 7 4 4 4 5 6 6 5 4 4 3 3 3 2 1 1 1 1 0 1 1 1
1 3 5 5 4 4 6 11 15 18 19 19 17 15 12 10 10 10 9 8 8 8 7 7 8 8 7 7 6 5 4 3 2 4 4 2 1 1 1 1 2 2 2
4 6 9 10 9 9 11 15 19 22 24 22 21 18 14 11 11 11 10 8 8 10 12 12 12 10 8 7 7 6 4 2 2 4 5 4 2 2 1 1 1 1 1
6 8 13 14 13 12 14 17 22 27 28 26 25 23 18 14 12 12 11 10 10 12 13 13 13 11 8 7 7 8 6 3 3 5 5 5 3 2 1 1 1 1 0
6 10 17 19 17 16 16 17 23 28 29 28 29 28 24 20 18 16 15 14 14 14 12 12 13 12 9 9 10 10 8 7 6 6 5 4 3 3 2 1 2 2 1
8 12 19 23 23 23 22 21 26 31 30 29 31 32 29 25 24 23 19 15 14 14 13 12 13 13 11 11 12 12 10 9 9 6 4 4 4 4 3 2 2 2 2
11 14 19 23 27 30 28 27 30 34 34 32 32 34 33 29 27 26 22 16 14 15 14 12 13 13 12 12 14 14 11 9 9 7 5 6 6 5 3 3 4 4 4
16 17 20 21 25 29 29 29 32 36 37 36 36 37 37 34 30 29 26 22 19 18 16 14 14 14 13 12 13 13 11 9 9 8 8 8 8 6 6 7 7 6 5
20 21 21 20 22 25 26 28 32 35 36 37 39 41 41 39 36 34 32 30 28 25 20 18 16 15 14 13 11 10 10 9 9 10 10 9 7 7 9 10 9 8 8
20 21 21 20 22 25 27 30 32 31 32 35 38 42 45 43 41 39 37 37 36 32 27 22 19 17 16 15 13 10 8 9 9 10 10 7 5 6 8 8 9 9 9
19 20 21 23 25 28 31 33 33 30 29 32 36 41 45 46 45 43 41 40 39 37 32 25 20 18 18 18 15 11 8 9 9 9 9 7 5 4 6 7 7 8 8
24 25 28 31 32 32 34 35 33 30 29 31 34 38 42 45 45 43 43 41 39 37 32 26 21 19 17 18 16 12 10 9 9 9 9 7 5 4 4 5 6 6 6
29 31 36 38 37 36 36 37 34 31 30 31 33 37 40 41 40 40 40 39 36 32 27 23 21 18 15 15 15 14 12 11 10 9 8 7 5 4 3 4 5 5 4
31 32 35 38 38 37 38 40 40 37 35 34 35 37 38 38 37 36 34 31 27 23 20 19 18 16 13 12 13 13 12 12 11 10 9 6 5 4 2 1 2 2 2
32 31 32 34 36 38 39 40 43 42 40 38 38 37 36 36 36 32 26 22 18 17 17 17 17 15 11 10 10 9 11 11 11 10 9 7 4 2 1 0 0 0 0
31 33 34 34 35 38 37 35 38 40 39 38 38 36 34 33 31 27 22 17 14 15 17 18 18 16 11 7 5 5 7 9 9 9 9 8 5 3 2 1 0 1 1
32 34 35 34 34 34 32 29 30 33 34 34 35 34 33 30 26 24 21 17 15 16 18 18 18 17 11 5 2 2 4 5 6 6 7 8 7 5 3 1 1 2 2
34 34 33 32 31 29 29 28 28 29 30 31 30 31 30 28 24 22 20 17 16 17 19 19 20 18 12 4 0 1 3 4 4 5 6 7 7 5 2 1 2 2 3
34 32 30 30 29 28 28 29 29 29 29 27 26 27 26 24 21 19 17 16 16 17 19 20 20 19 14 6 1 2 5 7 7 6 6 6 4 3 1 2 3 3 3
32 29 27 28 28 27 27 26 26 26 25 23 22 21 20 17 16 15 14 15 16 16 17 18 17 15 12 7 2 2 6 8 8 8 7 5 2 1 0 1 3 4 3
30 27 24 24 23 23 24 23 22 22 21 19 17 15 13 12 11 11 12 14 15 15 15 15 14 13 10 7 3 2 3 5 6 6 5 3 1 0 0 0 1 1 1
26 23 20 19 18 19 20 21 21 21 20 17 13 12 11 11 10 10 10 12 13 13 13 13 13 12 10 7 3 1 1 1 3 3 2 1 0 0 0 0 0 0 0
17 17 17 16 15 16 18 19 19 20 20 17 12 10 10 9 9 9 10 10 11 11 12 12 12 11 9 6 3 2 1 1 2 2 1 1 1 1 0 0 0 0 1
12 14 15 13 12 12 14 16 16 17 17 14 10 8 8 7 7 8 8 7 7 8 8 9 9 9 7 4 2 1 1 1 2 2 2 2 2 2 1 0 0 1 2
12 13 13 12 10 10 12 13 14 15 15 12 8 7 6 5 5 5 5 4 3 3 4 4 6 6 5 3 1 0 0 1 1 2 3 3 3 2 1 1 1 2 3

GEFSMW_con_prob3kmehi_264.txt.gz
EHI
17 15 12 14 22 33 38 36 30 27 23 20 19 18 16 17 18 22 25 24 21 19 20 24 25 20 17 16 15 12 10 8 5 4 4 4 6 7 8 7 5 4 4
24 23 20 19 26 36 41 38 33 30 27 24 20 18 17 18 21 27 30 29 24 22 23 26 25 21 18 18 17 15 12 9 7 5 4 2 3 4 5 6 5 5 5
32 34 33 31 32 38 42 41 38 36 33 30 25 23 23 23 26 32 35 33 28 26 27 29 28 23 20 19 18 17 14 11 8 6 3 0 1 2 3 4 6 7 7
33 37 40 39 37 38 43 47 47 45 41 37 32 30 30 29 30 32 33 33 31 29 30 32 31 27 23 19 18 17 16 13 10 7 3 1 1 1 2 2 4 8 10
28 32 39 43 40 38 44 53 57 55 50 43 38 36 35 33 32 33 34 34 31 30 31 34 34 31 25 21 20 19 17 15 12 8 6 5 2 0 1 1 2 6 10
24 28 37 45 45 42 46 55 62 62 56 47 42 41 40 37 37 39 41 38 34 32 33 35 35 33 27 23 21 20 18 15 13 11 11 10 6 2 0 0 0 3 5
23 25 35 47 51 50 52 58 64 64 57 50 47 46 45 42 43 45 45 41 37 36 37 37 37 34 29 23 20 19 18 16 15 15 14 13 10 6 2 1 0 0 1
26 26 33 45 52 53 57 61 64 62 56 52 51 51 50 48 47 48 46 42 39 38 39 40 39 36 29 21 18 18 18 17 16 15 14 13 11 9 5 2 1 1 1
28 29 32 40 47 52 56 59 60 59 55 52 52 53 55 55 52 50 47 43 40 39 39 42 41 35 28 22 19 18 18 16 15 14 13 11 10 9 7 5 3 2 2
28 29 31 35 42 47 49 52 56 58 56 53 54 55 58 59 57 53 50 47 45 43 42 43 41 34 29 27 24 21 18 15 13 13 13 11 10 8 7 6 4 3 3
25 26 28 31 34 37 39 44 52 56 57 56 56 57 58 60 59 55 53 52 50 47 44 43 39 33 30 29 29 25 19 15 14 13 13 11 10 8 6 5 4 3 3
24 25 29 31 31 32 35 41 47 52 55 56 57 57 59 60 59 55 53 52 49 46 42 40 37 33 29 28 27 23 18 15 13 13 12 10 9 8 6 5 5 4 4
29 32 39 43 42 40 41 42 45 50 54 56 56 57 59 59 56 52 49 46 44 42 38 34 33 31 27 24 23 20 17 14 12 11 10 9 9 9 8 6 5 5 4
40 46 55 58 54 50 49 47 46 51 56 58 56 56 57 55 49 46 44 41 39 38 35 30 26 25 23 21 19 17 15 15 13 11 9 8 7 7 7 6 5 5 6
47 56 64 64 59 55 51 49 48 51 56 58 57 55 54 50 44 41 39 37 35 34 32 28 23 20 18 15 15 14 13 14 14 12 9 7 6 5 4 4 4 5 7
49 55 61 61 59 55 51 49 50 51 54 55 54 51 49 44 38 36 35 34 33 32 31 27 23 19 15 10 8 9 11 13 14 12 10 8 6 4 3 3 2 4 6
51 54 58 58 57 54 52 52 53 52 52 52 49 44 40 36 32 31 32 33 32 32 31 27 23 19 14 8 4 5 9 12 12 11 9 7 4 3 3 1 1 1 2
54 55 56 56 54 53 54 56 54 51 48 47 45 40 35 32 30 29 30 29 29 30 29 26 23 19 15 9 4 3 7 11 11 9 7 5 4 4 3 1 1 1 1
56 56 54 53 52 52 53 54 52 49 46 45 43 39 34 32 30 28 27 26 26 26 25 24 23 21 16 10 5 5 8 11 11 9 5 4 5 4 3 3 3 2 1
58 57 54 51 50 51 51 51 50 48 46 43 40 36 33 30 28 25 24 24 23 21 20 20 22 22 17 11 5 4 8 11 10 8 5 3 3 2 2 4 4 3 2
58 57 54 50 49 49 48 47 46 45 44 41 37 33 29 26 24 22 20 20 19 17 15 16 19 21 18 11 4 3 5 8 8 7 5 4 2 1 1 1 2 2 3
55 54 52 49 46 44 44 42 40 39 39 38 35 30 24 21 21 19 16 15 15 15 14 15 18 20 17 12 5 2 2 4 5 6 5 4 2 0 0 0 0 1 1
51 49 48 46 42 39 39 38 36 34 34 34 31 26 19 16 17 17 14 12 12 12 12 14 17 19 17 12 6 1 0 1 2 3 3 2 1 0 0 0 0 0 1
45 45 45 44 40 37 36 35 32 29 28 28 26 21 17 16 17 15 12 10 9 7 8 11 14 16 14 10 6 2 0 0 0 1 1 0 0 0 0 0 1 1 2
39 40 42 41 36 33 32 29 25 24 25 25 22 18 17 18 18 15 10 7 5 4 6 7 9 10 9 7 5 2 0 0 0 0 1 1 1 0 0 0 1 2 3
36 37 38 37 32 29 28 25 20 20 23 23 20 17 18 21 20 14 9 5 4 4 5 5 5 5 5 5 4 2 0 0 0 1 2 2 2 1 0 0 1 3 3

GEFSMW_con_prob3kmehi_270.txt.gz
EHI
19 23 23 19 18 19 16 11 9 9 10 10 10 10 9 8 6 7 10 13 13 13 13 10 6 4 3 3 3 3 3 3 3 2 1 0 0 0 0 0 0 0 0
21 23 22 21 21 21 19 16 13 12 12 12 11 11 10 8 7 8 10 12 12 13 14 12 8 5 3 3 3 3 3 3 2 1 0 0 0 0 0 0 0 0 0
23 23 21 22 24 24 23 20 17 15 15 15 15 13 12 11 10 9 9 11 12 12 14 14 11 7 4 3 3 3 3 2 1 0 0 0 0 0 0 0 0 0 0
27 24 22 22 24 25 25 23 21 19 19 19 18 17 15 14 12 10 8 9 11 13 13 14 14 12 7 5 4 4 3 1 0 0 0 0 0 0 0 0 0 0 0
28 26 23 22 22 24 26 27 26 26 25 23 21 20 18 16 13 10 8 8 10 13 15 15 15 14 11 7 6 5 3 1 0 0 0 0 0 0 0 0 0 0 0
28 27 26 23 22 24 28 31 32 33 32 30 27 24 21 18 16 13 10 9 10 13 15 15 15 15 13 10 8 6 4 2 1 1 0 0 0 0 0 0 0 0 0
29 30 30 27 25 26 31 35 36 37 37 36 34 30 24 21 20 18 14 12 11 12 14 14 13 13 13 12 10 8 6 4 3 2 1 0 0 0 0 0 0 0 0
28 31 33 32 29 30 35 38 37 37 38 38 38 34 28 25 25 25 21 18 16 15 14 14 13 12 13 12 10 8 7 6 5 4 3 2 1 0 0 0 0 0 0
24 29 32 32 31 33 37 38 35 34 35 38 38 35 32 32 33 33 29 24 20 18 18 17 15 13 12 12 10 8 7 6 6 6 5 4 3 1 1 0 0 0 0
20 24 29 31 31 34 37 38 34 32 33 36 38 36 35 37 38 37 32 26 23 21 20 19 16 13 12 11 10 8 7 7 7 6 6 6 4 3 2 1 1 1 1
18 21 26 31 33 36 38 37 35 34 34 36 37 36 36 38 39 37 32 28 26 23 20 19 17 14 12 11 10 9 8 8 7 6 6 5 4 3 3 3 2 2 2
21 24 28 31 34 36 37 36 37 37 39 38 37 36 36 37 38 36 33 30 28 24 19 17 16 14 12 11 10 9 8 7 6 6 5 4 3 3 3 3 3 3 3
30 31 32 31 32 33 33 35 37 40 42 40 35 31 31 32 32 30 29 28 26 22 18 15 14 12 12 11 11 9 8 7 5 4 4 3 3 3 3 3 3 3 3
38 39 38 34 32 31 32 34 37 41 43 40 33 27 25 25 25 24 24 24 23 21 16 12 11 10 11 11 11 9 8 6 5 3 3 2 2 3 3 3 3 3 3
43 45 44 40 37 33 33 35 37 39 40 36 31 24 21 22 22 22 22 21 21 18 13 10 10 10 9 10 10 9 7 6 5 4 3 2 2 2 2 2 2 3 3
45 46 46 44 40 37 37 38 37 35 33 30 27 22 19 20 21 20 19 18 16 13 9 8 9 9 8 7 7 7 6 6 5 4 2 1 1 1 0 1 1 1 2
43 45 45 44 41 39 40 39 34 30 27 25 24 21 19 18 18 17 16 15 13 9 6 6 6 7 6 4 3 4 5 5 4 2 1 0 0 0 0 0 0 0 1
43 43 43 43 42 41 40 38 33 29 26 24 22 20 19 17 16 15 14 12 10 6 3 3 3 4 3 1 1 2 4 5 3 1 0 1 1 0 0 0 0 0 0
43 43 43 43 42 41 38 35 33 31 29 26 22 19 18 17 16 13 11 9 7 3 1 1 2 3 2 1 0 1 3 5 5 2 1 1 1 0 0 0 0 0 0
42 43 43 41 41 38 33 31 31 31 31 28 24 20 19 17 15 12 9 7 5 1 0 0 2 3 3 1 0 0 2 4 5 4 3 2 1 0 0 0 0 0 0
41 41 39 38 37 34 30 29 29 30 30 27 23 19 18 15 13 11 8 5 3 1 0 0 1 2 2 2 0 0 1 2 5 6 5 3 1 0 0 0 0 0 0
36 35 34 33 31 28 26 26 27 27 25 22 19 17 15 14 11 9 8 5 2 0 0 0 0 0 1 1 1 0 0 2 4 6 5 3 2 0 0 0 0 0 0
30 29 29 28 25 22 21 22 22 21 19 17 16 15 14 12 9 8 7 5 3 1 1 0 0 0 1 2 2 1 0 1 3 3 2 1 1 0 0 0 0 0 0
25 25 25 22 19 17 17 17 17 15 12 11 12 13 13 11 9 7 6 6 4 3 2 1 1 1 1 3 4 3 1 1 2 2 1 0 0 0 0 0 0 0 0
22 22 21 17 14 14 15 14 12 10 8 7 8 10 10 10 9 7 6 5 4 3 2 2 2 2 2 4 5 4 3 2 2 2 1 0 0 0 0 0 0 0 0
19 20 19 15 12 13 14 12 9 8 8 7 7 8 9 8 8 8 6 4 2 1 1 1 2 2 2 3 4 4 3 3 3 2 1 1 0 0 0 0 0 0 0